Weather History for KAVP - January, 2014

Change the Weather History Date:

Tuesday, January 7, 2014

  Actual Average Record
Temperature  
Mean Temperature 1 °F 26 °F  
Max Temperature 6 °F 33 °F 63 °F (1998)
Min Temperature -4 °F 19 °F -4 °F (2014)
Degree Days  
Heating Degree Days 64 39  
Month to date heating degree days 339 272  
Since 1 July heating degree days 2653 2650  
Cooling Degree Days 0 0  
Month to date cooling degree days 0 0  
Year to date cooling degree days 0 0  
Moisture  
Dew Point -13 °F    
Average Humidity 53    
Maximum Humidity 62    
Minimum Humidity 44    
Precipitation  
Precipitation 0.00 in 0.07 in 1.13 in (1979)
Month to date precipitation 0.96 0.50  
Year to date precipitation 0.96 0.50  
Sea Level Pressure  
Sea Level Pressure 30.16 in    
Wind  
Wind Speed 16 mph (WSW)    
Max Wind Speed 30 mph    
Max Gust Speed 37 mph    
Visibility 10 miles    
Events      
T = Trace of Precipitation, MM = Missing Value Source: NWS Daily Summary

Daily Weather History Graph

Daily Weather History Graph

Search for Another Location

Airport or City:

Trip Planner

Search our weather history database for the weather conditions in past years. The results will help you decide how hot, cold, wet, or windy it might be!

Date:

Astronomy

Jan. 07, 2014 Rise Set
Actual Time 7:28 AM EST 4:49 PM EST
Civil Twilight 6:57 AM EST 5:20 PM EST
Nautical Twilight 6:23 AM EST 5:55 PM EST
Astronomical Twilight 5:49 AM EST 6:28 PM EST
Moon 11:11 AM EST (1/7) No Moon Set
Length of Visible Light 10h 22m
Length of Day
9h 21m
Waxing Crescent, 45% of the Moon is Illuminated
Jan 7
Waxing Crescent
Jan 7
First Quarter
Jan 15
Full
Jan 24
Last Quarter
Jan 30
New

Hourly Weather History & Observations

Time (EST) Temp. Windchill Dew Point Humidity Pressure Visibility Wind Dir Wind Speed Gust Speed Precip Events Conditions
12:54 AM 3.9 °F -19.4 °F -11.9 °F 48% 29.87 in 10.0 mi West 26.5 mph 35.7 mph N/A   Clear
1:54 AM 1.9 °F -18.1 °F -11.0 °F 55% 29.90 in 10.0 mi West 17.3 mph 28.8 mph N/A   Scattered Clouds
2:54 AM 1.0 °F -17.3 °F -13.0 °F 52% 29.95 in 10.0 mi WSW 13.8 mph 21.9 mph N/A   Partly Cloudy
3:54 AM -0.0 °F -20.1 °F -14.1 °F 52% 29.97 in 10.0 mi WSW 16.1 mph 28.8 mph N/A   Clear
4:54 AM -2.0 °F -23.3 °F -16.1 °F 51% 30.00 in 10.0 mi SW 17.3 mph 25.3 mph N/A   Clear
5:54 AM -2.9 °F -23.8 °F -16.1 °F 54% 30.03 in 10.0 mi WSW 16.1 mph 23.0 mph N/A   Clear
6:54 AM -4.0 °F -25.8 °F -17.0 °F 54% 30.06 in 10.0 mi WSW 17.3 mph 24.2 mph N/A   Clear
7:54 AM -4.0 °F -25.8 °F -18.0 °F 51% 30.11 in 10.0 mi WSW 17.3 mph 27.6 mph N/A   Clear
8:54 AM -4.0 °F -25.2 °F -17.0 °F 54% 30.16 in 10.0 mi WSW 16.1 mph 26.5 mph N/A   Clear
9:54 AM -2.0 °F -22.6 °F -15.0 °F 54% 30.20 in 10.0 mi WSW 16.1 mph 26.5 mph N/A   Clear
10:54 AM -0.0 °F -23.3 °F -15.0 °F 49% 30.21 in 10.0 mi West 23.0 mph 32.2 mph N/A   Scattered Clouds
11:54 AM 1.0 °F -18.0 °F -15.0 °F 47% 30.18 in 10.0 mi WSW 15.0 mph 28.8 mph N/A   Overcast
12:54 PM 1.9 °F -15.5 °F -15.0 °F 45% 30.18 in 10.0 mi WSW 12.7 mph 26.5 mph N/A   Mostly Cloudy
1:54 PM 3.0 °F -16.1 °F -14.1 °F 45% 30.19 in 10.0 mi WSW 16.1 mph 23.0 mph N/A   Clear
2:54 PM 3.0 °F -16.7 °F -14.1 °F 45% 30.21 in 10.0 mi West 17.3 mph 32.2 mph N/A   Scattered Clouds
3:54 PM 3.0 °F -15.5 °F -13.0 °F 47% 30.22 in 10.0 mi WSW 15.0 mph 26.5 mph N/A   Clear
4:54 PM 3.9 °F -13.7 °F -11.9 °F 48% 30.24 in 10.0 mi WSW 13.8 mph 19.6 mph N/A   Clear
5:54 PM 3.0 °F -16.1 °F -11.9 °F 50% 30.26 in 10.0 mi WSW 16.1 mph 24.2 mph N/A   Clear
6:54 PM 3.0 °F -14.8 °F -11.0 °F 52% 30.27 in 10.0 mi WSW 13.8 mph 21.9 mph N/A   Clear
7:54 PM 1.9 °F -16.9 °F -9.9 °F 58% 30.30 in 10.0 mi WSW 15.0 mph 24.2 mph N/A   Clear
8:54 PM 1.9 °F -15.5 °F -9.0 °F 60% 30.32 in 10.0 mi WSW 12.7 mph 18.4 mph N/A   Clear
9:54 PM 1.9 °F -16.9 °F -9.0 °F 60% 30.35 in 10.0 mi WSW 15.0 mph 21.9 mph N/A   Clear
10:54 PM 1.9 °F -12.9 °F -9.0 °F 60% 30.37 in 10.0 mi SW 9.2 mph - N/A   Clear
11:54 PM 1.9 °F -13.8 °F -8.0 °F 63% 30.38 in 10.0 mi WSW 10.4 mph - N/A   Clear